www.pogodaiklimat.ru

Погода и климат >> Архив погоды >> Мексика >> Мехико


АРХИВ ПОГОДЫ в Мехико

Время (UTC), дата Ветер
(напр.,м/с)
 
Видим.   Явления Облачность Т
(С)
Тd
(С)
f
(%)
Тe
(С)
Тes
(С)
Комфортность P
(гПа)
Po
(гПа)
Тmin
(С)
Tmax
(С)
R
(мм)
R24
(мм)
S
(см)
15 16.02 С 1 3000 м дым {туман} ясно +15.8 +11.5 76 +17 +22 тепло 1011.5 775.9
18 16.02 ЮВ 2 4000 м дым {туман} ясно +24.8 +16.4 60 +28 +44 жарко 1009.8 775.1 +12.8 +25.5
21 16.02 ЮВ 1 10 км дым 3/3 800 м
[Cu med, cong]
+28.9 +13.4 39 +31 +39 жарко 1002.8 771.5
00 17.02 С 3 10 км дым 4/3 800 м
[Cu med, cong As op]
+26.7 +14.2 46 +29 +29 жарко 999.4 771.2 +12.8 +30.2
03 17.02 ЮВ 1 10 км дым ясно +21.3 +12.5 57 +24 +24 комфорт 1000.3 773.4
06 17.02 СЗ 1 10 км дым ясно +18.8 +12.3 66 +21 +21 комфорт 1001.8 774.1 +30.2
09 17.02 ЮЗ 1 10 км дым ясно +16.6 +11.5 72 +17 +17 тепло 1003.2 773.5
12 17.02 штиль 0 8000 м дым ясно +14.5 +10.9 79 +14 +14 тепло 1010.7 773.5 +14.5 +30.2
15 17.02 штиль 0 5000 м дым ясно +18.0 +10.9 63 +18 +25 тепло 1010.2 775.4
18 17.02 Ю 2 5000 м дым ясно +26.0 +14.5 49 +28 +44 жарко 1008.2 774.6 +14.0 +26.6
21 17.02 СВ 2 5000 м дым 1/1 800 м
[Cu hum]
+29.0 +15.0 43 +32 +41 душно 1002.4 772.0
00 18.02 СВ 3 4000 м дым ясно +26.6 +14.2 46 +29 +29 жарко 999.9 772.2 +14.0 +30.6
03 18.02 ЮВ 1 8000 м дым ясно +21.0 +11.2 53 +24 +24 комфорт 1001.4 774.4
15 18.02 В 1 3000 м дым {туман} ясно +16.6 +10.7 68 +17 +23 тепло 1011.8 776.3
18 18.02 Ю 1 2000 м мгла ясно +25.2 +14.9 53 +28 +47 жарко 1011.0 775.4 +12.6 +26.0
21 18.02 Ю 4 20 км мгла 1/1 750 м
[Cu hum]
+29.8 +12.2 34 +31 +37 жарко 1003.7 772.7
00 19.02 ЮВ 3 20 км дым ясно +26.8 +13.8 45 +29 +29 жарко 1000.8 772.7 +12.6 +30.7
06 19.02 С 2 14 км дым ясно +18.0 +10.4 61 +19 +19 тепло 1002.2 775.4 +12.6 +30.7
09 19.02 С 1 14 км дым ясно +15.0 +8.8 66 +16 +16 тепло 1005.2 774.4
12 19.02 штиль 0 14 км дым ясно +13.4 +8.8 74 +13 +13 тепло 1009.7 774.2 +13.4 +30.7
15 19.02 С 2 4000 м дым {туман} ясно +16.6 +9.6 63 +17 +22 тепло 1012.1 775.8
18 19.02 СВ 2 20 км мгла ясно +26.0 +10.5 38 +27 +43 жарко 1009.6 774.8 +12.2 +26.6
21 19.02 ЮЗ 4 20 км мгла 1/1 750 м
[Cu hum]
+26.0 +9.7 36 +27 +33 жарко 1004.6 772.7
00 20.02 ЮЗ 3 20 км ясно +23.9 +6.5 33 +24 +24 комфорт 1002.3 772.8 +12.2 +28.0
03 20.02 В 1 12 км ясно +18.0 +4.1 40 +19 +19 тепло 1003.5 774.7
15 20.02 С 1 10 км дым {туман} ясно +15.2 +7.6 60 +16 +22 тепло 1011.1 774.1
18 20.02 Ю 2 20 км мгла ясно +22.6 +12.8 54 +25 +42 комфорт 1009.2 773.4 +10.5 +23.5
21 20.02 СВ 6 20 км мгла 1/1 840 м
[Cu hum]
+25.2 +11.4 42 +27 +30 жарко 1002.8 770.4
00 21.02 ЮЗ 7 20 км дым 1/1 800 м
[Cu med, cong]
+22.9 +8.7 40 +24 +24 комфорт 1000.5 770.6 +10.5 +27.7
03 21.02 Ю 2 18 км дым ясно +19.6 +7.6 46 +21 +21 комфорт 1011.5 772.8
06 21.02 СЗ 2 16 км дым ясно +16.0 +8.9 63 +16 +16 тепло 1003.5 773.7 +10.5 +27.7
09 21.02 штиль 0 16 км дым ясно +14.2 +7.5 64 +14 +14 тепло 1004.0 772.3
12 21.02 С 1 16 км дым ясно +13.7 +7.9 68 +14 +14 тепло 1006.4 772.3 +13.5 +27.7
15 21.02 С 4 12 км дым {туман} ясно +17.2 +8.8 58 +17 +20 тепло 1009.9 774.0
18 21.02 В 2 20 км мгла ясно +24.6 +11.0 42 +26 +42 жарко 1008.2 773.5 +12.6 +25.4
21 21.02 ЮЗ 3 20 км мгла 3/1 840 м
[Cu hum Ci fib]
+25.4 +10.1 38 +26 +34 жарко 1003.6 771.8
03 22.02 З 5 15 км ясно +17.6 +4.9 43 +17 +17 по сезону 1003.6 774.3
15 22.02 С 2 8000 м дым {туман} 4/0 2000 м
[Ac trans Cs]
+15.6 +8.8 64 +16 +20 тепло 1013.5 776.1
18 22.02 ЮЗ 3 8000 м дым {туман} 6/0 600 м
[As op Cs]
+23.8 +13.6 53 +26 +36 жарко 1011.8 775.5 +11.0 +24.2
21 22.02 СВ 1 20 км дым 10/1 800 м
[Cu med, cong As op]
+25.8 +12.2 43 +27 +30 жарко 1006.3 773.2
00 23.02 З 4 15 км дым 10/3 800 м
[Cu med, cong As op Ci fib]
+22.8 +10.2 45 +25 +25 комфорт 1004.7 773.8 +11.0 +27.1
03 23.02 ЮЗ 4 12 км дым 9/0 2000 м
[Ac As]
+19.8 +9.2 50 +21 +21 комфорт 1005.6 775.8
06 23.02 ЮЗ 2 12 км дым {метель} 9/0 2000 м
[Ac As]
+17.6 +10.8 64 +18 +18 тепло 1006.8 776.2 +11.0 +27.1

 

Местоположение метеостанции Мехико (Мексика): широта 19.40 долгота -99.18 высота над уровнем моря 2303 м.

В архиве по умолчанию представлена погода в Мехико за последнюю неделю. Архивные данные за месяц целиком и за предыдущие месяцы, начиная с января 2011 года, Вы можете получить, выбрав интересующий диапазон дат из раскрывающегося списка и нажав кнопку "Ввод!".


*Определитесь, кто Вы:
робот инопланетянин человек

Внимание! Время в таблицах - всемирное. Для получения местного времени необходимо прибавить поправку, которая равна -6 ч.

Смотрите также архив погоды в соседних городах и на ближайших метеорологических станциях:

Погода в Институте Географии (Мексика) (9 км)
Погода в Толуке (Мексика) (54 км)
Погода в Куэрнаваке (Мексика) (58 км)
Погода в Сакатепеке (Мексика) (78 км)
Погода в Пачуке (Мексика) (93 км)
Погода в Тлашкале (Мексика) (98 км)
Погода в Тлашкала аэропорту (Мексика) (99 км)
Погода в Тулансинго (Мексика) (114 км)
Погода в Пуэбле (Мексика) (114 км)
Погода в Керетаро (Мексика) (183 км)

Пояснения к столбцам:

Ветер - указаны скорость ветра в м/с - средняя за 10 мин, порывы в срок и между сроками (в фигурных скобках) и направление, откуда дует ветер: С - северный, СВ - северо-восточный, В - восточный, ЮВ - юго-восточный, Ю - южный, ЮЗ - юго-западный, З - западный, СЗ - северо-западный.
Видимость - горизонтальная дальность видимости в метрах или километрах. При видимости от 1 до 10 км при отсутствии осадков обычно наблюдается дымка, при ухудшении видимости до 1 км и менее - туман. В сухую погоду видимость может ухудшаться дымом, пылью или мглою.
Явления - указаны атмосферные явления, наблюдавшиеся в срок или в последний час перед сроком; фигурными скобками обозначены явления, наблюдавшиеся между сроками (за 1-3 часа до срока); квадратными скобками обозначены град или гололедные отложения с указанием их диаметра в мм.
Облачность - указаны через наклонную черту общая и нижняя облачность в баллах и высота нижней границы облаков в метрах; квадратными скобками обозначены формы облаков: Ci - перистые, Cs - перисто-слоистые, Cc - перисто-кучевые, Ac - высококучевые, As - высокослоистые, Sc - слоисто-кучевые, Ns - слоисто-дождевые, Cu - кучевые, Cb - кучево-дождевые. Подробнее классификацию облаков см. в Атласе облаков (PDF).
T - Температура воздуха - температура, измеренная на высоте 2 м над землей.
Td - Температура точки росы - температура, при понижении до которой содержащийся в воздухе водяной пар достигнет насыщения.
f - Относительная влажность воздуха - влажноcть воздуха, измеренная на высоте 2 м над землей.
Te - Эффективная температура - температура, которую ощущает одетый по сезону человек в тени. Характеристика душности погоды. При расчете учитывается влияние влажности воздуха и скорости ветра на теплоощущения человека.
Tes - Эффективная температура на солнце - температура, которую ощущает человек, с поправкой на солнечный нагрев. Характеристика знойности погоды. Зависит от высоты солнца над горизонтом, облачности и скорости ветра. Ночью, в пасмурную погоду, а также при ветре 12 м/с и более поправка равна нулю.
P - Атмосферное давление - приведенное к уровню моря атмосферное давление.
Po - Атмосферное давление - измеренное на уровне метеостанции атмосферное давление.
Tmin - Минимальная температура - минимум температуры воздуха на высоте 2 м над землей.
Tmax - Максимальная температура - максимум температуры воздуха на высоте 2 м над землей.
R - Количество осадков - Количество выпавших осадков за период времени, мм. При наведении курсора мыши на число - период времени, за который выпало указанное количество осадков.
R24 - Количество осадков - Количество выпавших осадков за 24 часа, мм.
S - Снежный покров - Высота снежного покрова, см. При наведении курсора мыши на число - состояние снежного покрова и степень покрытия местности в баллах.